This demonstration page uses our WeatherBlox Daily Observations layout. Learn more.

Left ArrowRight Arrow

53.62937, 11.41316

Hourly Observations for March 15, 2021

Temp ( °F °C ) Dew Point ( °F °C ) Humidity (%) Winds ( mph kmh ) Pressure ( in mb ) Visibility ( mi km ) Precip ( " mm )
7:20 am 07:20 Mostly Cloudy 39 4 36 2 87 87 SSW 13 20 29.62 1003 30 48 N/A
7:50 am 07:50 Mostly Cloudy 41 5 36 2 81 81 SSW 14 22 29.62 1003 30 48 N/A
8:20 am 08:20 Mostly Cloudy with Light Showers 41 5 36 2 81 81 SSW 15 24 29.62 1003 30 48 N/A
8:50 am 08:50 Mostly Cloudy with Light Showers 41 5 37 3 87 87 SSW 15 24 29.62 1003 30 48 N/A
9:20 am 09:20 Mostly Cloudy with Light Showers 41 5 37 3 87 87 SSW 14 22 29.62 1003 30 48 N/A
9:50 am 09:50 Mostly Cloudy 41 5 37 3 87 87 SSW 16 26 29.62 1003 30 48 N/A
10:20 am 10:20 Mostly Cloudy 41 5 37 3 87 87 SSW 16 26 29.59 1002 30 48 N/A
10:50 am 10:50 Mostly Cloudy with Showers Nearby 43 6 39 4 87 87 SW 14 22 29.59 1002 30 48 N/A
11:20 am 11:20 Mostly Cloudy with Showers Nearby 45 7 39 4 81 81 SW 14 22 29.59 1002 30 48 N/A
11:50 am 11:50 Mostly Cloudy with Drizzle 45 7 37 3 76 76 SW 13 20 29.59 1002 30 48 N/A
12:20 pm 12:20 Mostly Cloudy with Showers Nearby 43 6 39 4 87 87 WSW 13 20 29.59 1002 30 48 N/A
12:50 pm 12:50 Mostly Cloudy with Showers Nearby 43 6 39 4 87 87 WSW 10 17 29.59 1002 30 48 N/A
1:20 pm 13:20 Mostly Cloudy with Showers Nearby 45 7 37 3 76 76 W 9 15 29.59 1002 30 48 N/A
1:50 pm 13:50 Mostly Cloudy 43 6 39 4 87 87 WSW 9 15 29.62 1003 30 48 N/A
2:20 pm 14:20 Mostly Cloudy 45 7 39 4 81 81 WSW 8 13 29.62 1003 30 48 N/A
2:50 pm 14:50 Mostly Cloudy with Light Showers 43 6 39 4 87 87 W 8 13 29.65 1004 4 6 N/A
3:50 pm 15:50 Mostly Cloudy with Light Rain 41 5 39 4 93 93 VRB 5 7 29.68 1005 30 48 N/A
4:20 pm 16:20 Mostly Cloudy 43 6 39 4 87 87 W 7 11 29.68 1005 30 48 N/A
4:50 pm 16:50 Mostly Cloudy with Light Rain 41 5 37 3 87 87 W 7 11 29.71 1006 30 48 N/A
5:20 pm 17:20 Mostly Cloudy 43 6 39 4 87 87 VRB 3 6 29.71 1006 30 48 N/A
5:50 pm 17:50 Mostly Cloudy with Light Rain 43 6 39 4 87 87 W 5 7 29.74 1007 1 2 N/A
6:20 pm 18:20 Mostly Cloudy 41 5 39 4 93 93 VRB 5 7 29.74 1007 30 48 N/A
6:50 pm 18:50 Mostly Cloudy 41 5 39 4 93 93 VRB 6 9 29.77 1008 30 48 N/A
7:20 pm 19:20 Mostly Cloudy with Drizzle 41 5 37 3 87 87 VRB 7 11 29.77 1008 30 48 N/A
7:50 pm 19:50 Mostly Cloudy with Light Rain 39 4 37 3 93 93 WNW 8 13 29.80 1009 30 48 N/A

Powered by AerisWeather